Regional Weather Roundup
Issued by NWS

Home | Current Version | Previous Version | Text Only | Print | Product List | Glossary Off
Versions: 1 2 3 4 5 6 7 8 9 10 11 12 13 14 15 16 17 18 19 20 21 22 23 24 25 26 27 28 29 30 31 32 33 34 35 36 37 38 39 40 41 42 43 44 45 46 47 48 49 50

000
ASUS45 KSLC 301310
RWRUT

UTAH REGIONAL WEATHER ROUNDUP
NATIONAL WEATHER SERVICE SALT LAKE CITY UT
600 AM MST FRI JAN 30 2015

UTZ001>011-023>025-301400-

NORTHERN UTAH

CITY           SKY/WX    TMP DP  RH WIND       PRES   REMARKS
BRIGHAM CITY   MOCLDY    36  32  87 CALM      30.17F
HILL AFB       MOCLDY    39  28  65 E8        30.15F WCI  34
LOGAN          FOG       33  32  96 SE5       30.19F VSB 1/4 WCI  29
OGDEN          CLOUDY    37  33  85 W3        30.15F
PROVO AIRPORT  CLOUDY    36  34  93 NW5       30.15F WCI  32
SALT LAKE CITY CLOUDY    37  35  92 CALM      30.15F
VERNAL         CLOUDY    34  33  96 CALM      30.22F
WENDOVER       CLOUDY    37  30  75 W3        30.17F
HEBER CITY     CLOUDY    34  32  93 CALM      30.17F FOG
WEST JORDAN    CLOUDY    37  37 100 CALM      30.16F

$$

UTZ012>022-026-027-301400-

SOUTHERN/CENTRAL UTAH

CITY           SKY/WX    TMP DP  RH WIND       PRES   REMARKS
BLANDING       CLOUDY    32  32 100 NE5       30.27F WCI  27
BRYCE CANYON   LGT SNOW  32  31  96 SE3       30.10F FOG
CEDAR CITY     FOG       36  36 100 CALM      30.04F VSB 1/4
DELTA          CLOUDY    37  37 100 N3        30.12F
HANKSVILLE     CLOUDY    39  37  93 CALM      30.18F
MILFORD        LGT RAIN  39  37  92 N14       30.08F FOG     WCI  31
MOAB/CYNLANDS  CLOUDY    39  38  96 CALM      30.15F
PRICE          MIX PCPN  37  34  89 NW3       30.17F
ST GEORGE      CLOUDY    46  43  87 CALM      30.04F
KANAB            N/A     39  36  87 N7        30.09F WCI  34

$$

REGIONAL REPORTS     COLORADO/ARIZONA

CITY           SKY/WX    TMP DP  RH WIND       PRES   REMARKS
CRAIG, CO      CLOUDY    33  31  92 NE5       30.23F WCI  29
GRAND JUNCTION CLOUDY    37  32  82 CALM      30.18F
RIFLE          CLOUDY    32  28  85 SE5       30.21F WCI  27
MONTROSE       CLOUDY    38  30  73 CALM      30.21F
CORTEZ         CLOUDY    36  32  85 SW5       30.20F WCI  32
PAGE, AZ       NOT AVBL
GRAND CANYON   LGT RAIN  36  34  92 E10       30.04S WCI  28
KINGMAN        LGT RAIN  47  46  97 N6        29.94F
FLAGSTAFF      LGT RAIN  37  36  96 VRB6      30.03F WCI  32

$$

REGIONAL REPORTS    NEVADA/IDAHO/WYOMING

CITY           SKY/WX    TMP DP  RH WIND       PRES   REMARKS
LAS VEGAS, NV  LGT RAIN  55  44  66 W5        29.94F
ELY            CLOUDY    34  34 100 N9        30.11F WCI  27
ELKO           CLOUDY    35  31  85 N3        30.13F
POCATELLO, ID  CLEAR     29  28  96 NE3       30.23F
BURLEY         CLOUDY    31  29  92 CALM      30.22F
EVANSTON, WY   MOCLDY    28  24  85 NE6       30.19F WCI  22
ROCK SPRINGS   CLOUDY    28  26  92 SW3       30.20F
KEMMERER       CLOUDY    23  21  93 NW7       30.20F WCI  15

$$


USA.gov is the U.S. government's official web portal to all federal, state and local government web resources and services.